Regional Weather Roundup
Issued by NWS

Home | Current Version | Previous Version | Graphics & Text | Print | Product List | Glossary On
Versions: 1 2 3 4 5 6 7 8 9 10 11 12 13 14 15 16 17 18 19 20 21 22 23 24 25 26 27 28 29 30 31 32 33 34 35 36 37 38 39 40 41 42 43 44 45 46 47 48 49 50
000
ASUS45 KTFX 300804
RWRMT
MONTANA HOURLY WEATHER ROUNDUP
NATIONAL WEATHER SERVICE GREAT FALLS MT
204 AM MDT WED JUL 30 2014

NOTE: "FAIR" INDICATES FEW OR NO CLOUDS BELOW 12000 FEET WITH NO
SIGNIFICANT WEATHER AND/OR OBSTRUCTIONS TO VISIBILITY.

* THESE STATIONS ARE NOT UNDER NWS QUALITY CONTROL. THEY DO NOT
   REPORT WEATHER SUCH AS PRECIPITATION OR FOG.

MTZ001>007-043-300900-
WEST OF THE DIVIDE
CITY           SKY/WX    TMP DP  RH WIND       PRES   REMARKS
KALISPELL      CLEAR     59  48  67 NW3       30.09S
MISSOULA       PTCLDY    63  39  41 N3        30.12S
BUTTE          MOCLDY    57  43  60 S3        30.30S
MULLAN PASS    CLEAR     72  36  27 SE5       30.29F
* LINCOLN      N/A       54  48  80 NE2        N/A
* LOOKOUT PASS N/A       65  44  47 N/A        N/A
* POLSON       N/A       70  43  38 N/A        N/A
* RONAN APT    CLEAR     61  52  72 N/A        N/A
* SEELEY LAKE  N/A       54  45  72 NE1        N/A
* THOMP F APT  CLEAR     62  43  50 N10        N/A
* YAAK HILL    N/A       63  44  50 NE1        N/A
$$

MTZ008-052>055-300900-
SOUTHWEST MONTANA
CITY           SKY/WX    TMP DP  RH WIND       PRES   REMARKS
BOZEMAN        MOCLDY    61  48  62 CALM      30.23R
DILLON         MOCLDY    63  45  52 S6        30.26S
W YELLOWSTONE  FOG       45  45 100 CALM      30.40S VSB M1/4
* THREE FORKS  MOCLDY    61  61 100 N/A        N/A
* BOULDER HILL N/A       63  39  41 S5         N/A
* MONIDA PASS  N/A       51  48  90 SW2        N/A
* RAYNOLDS PAS N/A       48  32  54 S4         N/A
* WHITEHALL    N/A       60  46  60 N2G7       N/A
* WISE RIVER   N/A       58  44  60 S2         N/A
$$

MTZ009>010-012-014-046-048-049-054-300900-
EAST SLOPES AND CENTRAL MONTANA
CITY           SKY/WX    TMP DP  RH WIND       PRES   REMARKS
CUT BANK       CLEAR     57  45  64 N5        30.17S
GREAT FALLS    PTCLDY    70  45  41 CALM      30.16R
HELENA         PTCLDY    66  46  49 SW7       30.20R
MALMSTROM AFB  CLEAR     63  45  52 SE8       30.16S
* CONRAD       CLEAR     52  52 100 N/A        N/A
* DEARBORN     N/A       63  45  52 SE2        N/A
* EAST GLACIER N/A       57  46  67 NW8        N/A
* MONARCH      N/A       58  40  51 S12        N/A
* ROGERS PASS  N/A       60  44  56 SW1G6      N/A
* SAINT MARY   N/A       50  45  83 SE3        N/A
* SWEET GRASS  N/A       72  41  33 S13G20     N/A
$$

MTZ011-013-016-021-035-040-045-047-050-051-300900-
NORTH CENTRAL MONTANA
CITY           SKY/WX    TMP DP  RH WIND       PRES   REMARKS
HAVRE          CLEAR     79  43  28 VRB7      30.11F
LEWISTOWN      CLEAR     66  41  40 E9        30.23S
* CHESTER      N/A       72  41  33 SE7        N/A
* DENTON       N/A       66  43  43 SE8        N/A
* GEYSER       N/A       62  43  50 NE6        N/A
* JUDITH GAP   N/A       65  42  43 S4G9       N/A
* LOMA         N/A       72  42  34 NE13       N/A
$$

MTZ017>020-022>027-061-062-300900-
NORTHEAST MONTANA
CITY           SKY/WX    TMP DP  RH WIND       PRES   REMARKS
GLASGOW        CLEAR     63  52  68 E10       30.18R
GLENDIVE       CLEAR     61  48  62 N8        30.20S
JORDAN         CLEAR     57  43  60 NE3       30.19S
SIDNEY         CLEAR     61  54  78 NW6       30.19S
WOLF POINT     CLEAR     59  54  84 E6        30.18S
* BEAVER HILL  N/A       59  51  75 E6         N/A
* CIRCLE       N/A       62  50  65 N/A        N/A
* LINDSAY DVD  N/A       62  49  63 NE4        N/A
$$

MTZ028>042-056>058-300900-
SOUTHCENTRAL AND SOUTHEAST MONTANA
CITY           SKY/WX    TMP DP  RH WIND       PRES   REMARKS
BAKER          CLEAR     57  54  90 CALM      30.20S
BILLINGS       PTCLDY    70  54  57 SW10      30.22S
LIVINGSTON     PTCLDY    64  48  56 CALM      30.25R
MILES CITY     CLEAR     63  46  54 NE9       30.18S
* LAUREL APT   MOCLDY    64  52  65 N/A        N/A
* ROUNDUP APT  CLEAR     68  39  35 N/A        N/A
* ALZADA       N/A       63  55  75 SE1        N/A
* HYSHAM       N/A       69  40  35 E5         N/A
* LAME DEER    N/A       67  39  36 E4         N/A
* REED POINT   N/A       63  54  73 N/A        N/A
* ROSCOE HILL  N/A       63  42  46 SE7        N/A
$$

REGIONAL REPORTS...DAKOTAS
CITY           SKY/WX    TMP DP  RH WIND       PRES   REMARKS
WILLISTON      CLEAR     61  55  81 NE5       30.18S
DICKINSON      CLEAR     57  55  93 N5        30.17S
CROSBY         N/A       52  52 100 W5        30.19F
TIOGA          FOG       50  50 100 CALM      30.22S VSB 2
WATFORD CITY   CLEAR     54  54 100 CALM      30.16F
BISMARCK       CLEAR     57  30  36 NE3       30.17S
GRAND FORKS    CLEAR     55  54  96 W6        30.11R
FARGO          CLEAR     57  54  90 W3        30.11S
BUFFALO SD     CLEAR     61  52  72 NW7       30.11F
RAPID CITY     PTCLDY    54  48  80 CALM      30.20F
$$

REGIONAL REPORTS...WYOMING/IDAHO/WASHINGTON
CITY           SKY/WX    TMP DP  RH WIND       PRES   REMARKS
GILLETTE       PTCLDY    59  54  84 SW8       30.26F
SHERIDAN       PTCLDY    52  46  80 CALM      30.24S
YELLOWSTONE LA MOCLDY    45  43  93 NW3       30.47F
SALMON         MOCLDY    61  52  72 CALM      30.20S
MULLAN PASS    CLEAR     72  36  27 SE5       30.29S
SAND POINT     PTCLDY    57  50  78 CALM      30.03R
SPOKANE        PTCLDY    79  30  17 SW7       30.02S

$$




USA.gov is the U.S. government's official web portal to all federal, state and local government web resources and services.